Weather History for KCCR - February, 2013

Change the Weather History Date:

Saturday, February 2, 2013

  Actual Average Record
Temperature  
Mean Temperature 52 °F 50 °F  
Max Temperature 63 °F 58 °F 69 °F (2012)
Min Temperature 41 °F 41 °F 34 °F (2002)
Degree Days  
Heating Degree Days 13    
Month to date heating degree days 27  
Since 1 July heating degree days 1556  
Cooling Degree Days 0    
Month to date cooling degree days 0  
Year to date cooling degree days 0  
Growing Degree Days 2 (Base 50)    
Moisture  
Dew Point 43 °F    
Average Humidity 72    
Maximum Humidity 96    
Minimum Humidity 48    
Precipitation  
Precipitation 0.00 in - 0.63 in (2004)
Month to date precipitation 0.00  
Year to date precipitation 0.40  
Since 1 July precipitation 10.04  
Sea Level Pressure  
Sea Level Pressure 30.21 in    
Wind  
Wind Speed 3 mph (North)    
Max Wind Speed 9 mph    
Max Gust Speed 21 mph    
Visibility 9 miles    
Events      
T = Trace of Precipitation, MM = Missing Value Source: NWS Daily Summary

Daily Weather History Graph

Daily Weather History Graph

Search for Another Location

Airport or City:

Trip Planner

Search our weather history database for the weather conditions in past years. The results will help you decide how hot, cold, wet, or windy it might be!

Date:

Astronomy

Feb. 02, 2013 Rise Set
Actual Time 7:11 AM PST 5:33 PM PST
Civil Twilight 6:43 AM PST 6:00 PM PST
Nautical Twilight 6:12 AM PST 6:32 PM PST
Astronomical Twilight 5:41 AM PST 7:02 PM PST
Moon No Moon Rise 10:33 AM PST (2/2)
Length of Visible Light 11h 16m
Length of Day
10h 21m
Waning Gibbous, 58% of the Moon is Illuminated
Feb 2
Waning Gibbous
Feb 3
Last Quarter
Feb 9
New
Feb 17
First Quarter
Feb 25
Full

Hourly Weather History & Observations

Time (PST) Temp. Windchill Dew Point Humidity Pressure Visibility Wind Dir Wind Speed Gust Speed Precip Events Conditions
1:53 AM 43.0 °F - 39.9 °F 89% 30.20 in 7.0 mi Calm Calm - N/A   Clear
2:53 AM 43.0 °F - 39.9 °F 89% 30.20 in 9.0 mi Calm Calm - N/A   Clear
3:53 AM 42.1 °F - 39.9 °F 92% 30.20 in 10.0 mi Calm Calm - N/A   Clear
4:53 AM 41.0 °F - 39.9 °F 96% 30.20 in 10.0 mi Calm Calm - N/A   Clear
5:53 AM 41.0 °F 39.0 °F 39.9 °F 96% 30.21 in 9.0 mi SE 3.5 mph - N/A   Clear
6:53 AM 42.1 °F - 39.9 °F 92% 30.22 in 10.0 mi Calm Calm - N/A   Clear
7:53 AM 43.0 °F 41.3 °F 41.0 °F 93% 30.24 in 9.0 mi South 3.5 mph - N/A   Clear
8:53 AM 46.0 °F - 43.0 °F 89% 30.25 in 10.0 mi Calm Calm - N/A   Clear
9:53 AM 50.0 °F - 44.1 °F 80% 30.26 in 10.0 mi Calm Calm - N/A   Clear
10:53 AM 54.0 °F - 44.1 °F 69% 30.26 in 10.0 mi North 5.8 mph - N/A   Clear
11:53 AM 59.0 °F - 43.0 °F 55% 30.25 in 7.0 mi North 4.6 mph - N/A   Clear
12:53 PM 59.0 °F - 45.0 °F 60% 30.22 in 10.0 mi North 5.8 mph - N/A   Clear
1:53 PM 61.0 °F - 44.1 °F 54% 30.19 in 10.0 mi NNE 6.9 mph - N/A   Clear
2:53 PM 62.1 °F - 42.1 °F 48% 30.18 in 10.0 mi North 6.9 mph - N/A   Clear
3:53 PM 63.0 °F - 45.0 °F 52% 30.18 in 10.0 mi North 5.8 mph - N/A   Clear
4:53 PM 59.0 °F - 45.0 °F 60% 30.17 in 10.0 mi North 4.6 mph - N/A   Clear
5:53 PM 53.1 °F - 45.0 °F 74% 30.18 in 10.0 mi NNW 6.9 mph - N/A   Clear
6:53 PM 53.1 °F - 45.0 °F 74% 30.19 in 10.0 mi Calm Calm - N/A   Clear
7:53 PM 51.1 °F - 45.0 °F 80% 30.20 in 10.0 mi West 3.5 mph - N/A   Clear
8:53 PM 48.9 °F - 44.1 °F 83% 30.20 in 10.0 mi Calm Calm - N/A   Clear
9:53 PM 48.0 °F - 43.0 °F 83% 30.20 in 10.0 mi Calm Calm - N/A   Clear
10:53 PM 46.0 °F 44.8 °F 43.0 °F 89% 30.20 in 8.0 mi South 3.5 mph - N/A   Clear
11:53 PM 43.0 °F - 42.1 °F 97% 30.21 in 7.0 mi Calm Calm - N/A   Clear